Weather History for LDSP - November, 2012

Change the Weather History Date:

Friday, November 9, 2012

  Actual Average Record
Temperature  
Mean Temperature 56 °F -  
Max Temperature 65 °F - - ()
Min Temperature 47 °F - - ()
Degree Days  
Heating Degree Days 9    
Growing Degree Days 6 (Base 50)    
Moisture  
Dew Point 46 °F    
Average Humidity 70    
Maximum Humidity 88    
Minimum Humidity 47    
Precipitation  
Precipitation 0.00 in - - ()
Sea Level Pressure  
Sea Level Pressure 30.10 in    
Wind  
Wind Speed 4 mph ()    
Max Wind Speed 14 mph    
Max Gust Speed -    
Visibility 11.2 miles    
Events      
T = Trace of Precipitation, MM = Missing Value Source: Averaged Metar Reports

Daily Weather History Graph

Daily Weather History Graph

Search for Another Location

Airport or City:

Trip Planner

Search our weather history database for the weather conditions in past years. The results will help you decide how hot, cold, wet, or windy it might be!

Date:

Astronomy

Nov. 09, 2012 Rise Set
Actual Time 6:41 AM CET 4:35 PM CET
Civil Twilight 6:10 AM CET 5:06 PM CET
Nautical Twilight 5:36 AM CET 5:40 PM CET
Astronomical Twilight 5:02 AM CET 6:13 PM CET
Moon 1:11 AM CET (11/9) 1:47 PM CET (11/9)
Length of Visible Light 10h 55m
Length of Day
9h 54m
Waning Crescent, 25% of the Moon is Illuminated
Nov 9
Waning Crescent
Nov 13
New
Nov 20
First Quarter
Nov 28
Full
Dec 6
Last Quarter

Hourly Weather History & Observations

Time (CET) Temp. Dew Point Humidity Pressure Visibility Wind Dir Wind Speed Gust Speed Precip Events Conditions
12:00 AM 48.2 °F 41.0 °F 76% 30.15 in - NNW 5.8 mph - N/A   Clear
12:30 AM 48.2 °F 41.0 °F 76% 30.15 in - Variable 1.2 mph - N/A   Clear
1:00 AM 50 °F 41 °F 63% 30.15 in 12 mi Calm Calm - -  
1:00 AM 50.0 °F 41.0 °F 71% 30.12 in - Calm Calm - N/A   Clear
1:30 AM 48.2 °F 41.0 °F 76% 30.12 in - Calm Calm - N/A   Clear
2:00 AM 50.0 °F 41.0 °F 71% 30.12 in - Calm Calm - N/A   Clear
2:30 AM 48.2 °F 41.0 °F 76% 30.12 in - Variable 1.2 mph - N/A   Clear
3:00 AM 48.2 °F 41.0 °F 76% 30.12 in - Variable 2.3 mph - N/A   Clear
3:30 AM 48.2 °F 42.8 °F 82% 30.09 in - Calm Calm - N/A   Clear
4:00 AM 49 °F 43 °F 73% 30.11 in 12 mi North 4.5 mph - -  
4:00 AM 48.2 °F 42.8 °F 82% 30.09 in - North 4.6 mph - N/A   Clear
4:30 AM 50.0 °F 44.6 °F 82% 30.09 in - Variable 2.3 mph - N/A   Clear
5:00 AM 50.0 °F 44.6 °F 82% 30.09 in - Variable 1.2 mph - N/A   Clear
5:30 AM 48.2 °F 44.6 °F 87% 30.09 in - Variable 3.5 mph - N/A   Clear
6:00 AM 48.2 °F 44.6 °F 87% 30.09 in - Variable 3.5 mph - N/A   Clear
6:30 AM 50.0 °F 44.6 °F 82% 30.09 in - Calm Calm - N/A   Clear
7:00 AM 50 °F 46 °F 81% 30.12 in 12 mi North 2.2 mph - -   Mostly Cloudy
7:00 AM 50.0 °F 46.4 °F 87% 30.09 in - Variable 1.2 mph - N/A   Clear
7:30 AM 51.8 °F 46.4 °F 82% 30.09 in - Calm Calm - N/A   Clear
8:00 AM 51.8 °F 48.2 °F 88% 30.12 in - Variable 3.5 mph - N/A   Clear
8:30 AM 53.6 °F 48.2 °F 82% 30.12 in - Variable 1.2 mph - N/A   Clear
9:00 AM 55.4 °F 46.4 °F 72% 30.12 in - Calm Calm - N/A   Clear
9:30 AM 55.4 °F 48.2 °F 77% 30.12 in - Calm Calm - N/A   Clear
10:00 AM 58 °F 48 °F 61% 30.14 in 19 mi Calm Calm - -   Partly Cloudy
10:00 AM 57.2 °F 48.2 °F 72% 30.12 in - Calm Calm - N/A   Clear
10:30 AM 60.8 °F 50.0 °F 68% 30.12 in 6.2 mi Variable 2.3 mph - N/A   Partly Cloudy
11:00 AM 62.6 °F 50.0 °F 63% 30.12 in 6.2 mi Calm Calm - N/A   Partly Cloudy
11:30 AM 62.6 °F 51.8 °F 68% 30.12 in 6.2 mi Variable 1.2 mph - N/A   Partly Cloudy
12:00 PM - - N/A% 30.09 in - WNW 11.5 mph - N/A   Clear
12:30 PM 64.4 °F 48.2 °F 56% 30.09 in 6.2 mi WNW 5.8 mph - N/A   Partly Cloudy
1:00 PM 64 °F 49 °F 47% 30.09 in 19 mi WNW 8.9 mph - -   Scattered Clouds
1:00 PM 64.4 °F 48.2 °F 56% 30.09 in 6.2 mi WNW 8.1 mph - N/A   Partly Cloudy
1:30 PM 64.4 °F 46.4 °F 52% 30.06 in - WNW 6.9 mph - N/A   Clear
2:00 PM 64.4 °F 46.4 °F 52% 30.06 in 6.2 mi WNW 9.2 mph - N/A   Partly Cloudy
2:30 PM 64.4 °F 46.4 °F 52% 30.06 in 6.2 mi WNW 9.2 mph - N/A   Partly Cloudy
3:00 PM 64.4 °F 48.2 °F 56% 30.06 in - West 8.1 mph - N/A   Clear
3:30 PM 64.4 °F 48.2 °F 56% 30.06 in - West 8.1 mph - N/A   Clear
4:00 PM 63 °F 48 °F 48% 30.09 in 19 mi West 6.7 mph - -  
4:00 PM 62.6 °F 48.2 °F 59% 30.06 in - West 6.9 mph - N/A   Clear
4:30 PM 60.8 °F 48.2 °F 63% 30.06 in - WNW 11.5 mph - N/A   Clear
5:00 PM 59.0 °F 48.2 °F 67% 30.06 in - WNW 10.4 mph - N/A   Clear
5:30 PM 57.2 °F 48.2 °F 72% 30.09 in - WNW 13.8 mph - N/A   Clear
6:00 PM 59.0 °F 48.2 °F 67% 30.09 in - WNW 11.5 mph - N/A   Clear
6:30 PM 59.0 °F 46.4 °F 63% 30.09 in - WNW 12.7 mph - N/A   Clear
7:00 PM 58 °F 47 °F 57% 30.11 in 19 mi NW 11.2 mph - -  
7:00 PM 57.2 °F 46.4 °F 67% 30.09 in - NW 10.4 mph - N/A   Clear
7:30 PM 57.2 °F 46.4 °F 67% 30.09 in - NW 11.5 mph - N/A   Clear
8:00 PM 57.2 °F 46.4 °F 67% 30.12 in - NW 12.7 mph - N/A   Clear
8:30 PM 55.4 °F 46.4 °F 72% 30.12 in - NW 11.5 mph - N/A   Clear
9:00 PM 55.4 °F 44.6 °F 67% 30.12 in - WNW 10.4 mph - N/A   Clear
9:30 PM 53.6 °F 44.6 °F 72% 30.12 in - WNW 10.4 mph - N/A   Clear
10:00 PM 54 °F 46 °F 65% 30.13 in 12 mi NW 11.2 mph - -  
10:00 PM 53.6 °F 46.4 °F 77% 30.12 in - NW 12.7 mph - N/A   Clear
10:30 PM 53.6 °F 44.6 °F 72% 30.12 in - WNW 11.5 mph - N/A   Clear
11:00 PM 53.6 °F 44.6 °F 72% 30.12 in - WNW 9.2 mph - N/A   Clear
11:30 PM 50.0 °F 42.8 °F 76% 30.12 in - NW 6.9 mph - N/A   Clear